FW1825 Weather Reports


time (UTC)temp
C
wind
direction
speed
KPH
gust
KPH
rain 1hr
cm
rain 24hr
cm
rain mn
cm
humidity
%
barometer
mb
20260507030657 5 271 0.0 0.0 0.00 1.07 1.07 93 1009.8
20260507030155 5 270 0.0 0.0 0.00 1.07 1.07 93 1009.6
20260507025900 5 270 0.0 0.0 0.00 1.07 1.07 93 1009.5
20260507025351 5 270 0.0 0.0 0.00 1.07 1.07 93 1009.6
20260507024625 6 270 0.0 0.0 0.00 1.07 1.07 93 1009.8
20260507024123 5 270 0.0 0.0 0.00 1.07 1.07 93 1009.8
20260507023615 5 270 0.0 0.0 0.00 1.07 1.07 93 1009.7
20260507023115 5 270 0.0 0.0 0.00 1.07 1.07 93 1009.6
20260507022557 5 270 0.0 0.0 0.00 1.07 1.07 93 1009.4
20260507022054 5 270 0.0 0.0 0.00 1.07 1.07 93 1009.6
20260507021550 5 270 0.0 0.0 0.00 1.07 1.07 93 1009.7
20260507021040 5 270 0.0 0.0 0.00 1.07 1.07 93 1009.7
20260507020539 5 270 0.0 0.0 0.00 1.07 1.07 93 1009.7
20260507020035 5 270 0.0 0.0 0.00 1.07 1.07 93 1009.6
20260507015747 5 270 0.0 0.0 0.00 1.07 1.07 93 1009.7
20260507015016 5 270 0.0 0.0 0.00 1.07 1.07 93 1009.8
20260507014729 5 270 0.0 0.0 0.00 1.07 1.07 93 1009.8
20260507013951 5 270 0.0 0.0 0.00 1.07 1.07 93 1010.0
20260507013713 5 270 0.0 0.0 0.00 1.07 1.07 93 1009.8
20260507012947 5 270 0.0 0.0 0.00 1.07 1.07 93 1009.7
20260507012438 5 270 0.0 0.0 0.00 1.07 1.07 93 1009.6
20260507011929 5 270 0.0 0.0 0.00 1.07 1.07 93 1009.6
20260507011429 5 270 0.0 0.0 0.00 1.07 1.07 93 1009.8
20260507010926 5 270 1.6 3.2 0.00 1.07 1.07 93 1009.5
20260507010422 5 270 1.6 3.2 0.00 1.07 1.07 93 1009.6
20260507010137 5 270 0.0 3.2 0.00 1.07 1.07 93 1009.5
20260507005414 5 270 1.6 3.2 0.00 1.07 1.07 93 1009.4
20260507004907 5 270 1.6 3.2 0.00 1.07 1.07 93 1009.5
20260507004400 5 270 1.6 4.8 0.00 1.07 1.07 93 1009.3
20260507003856 5 270 3.2 4.8 0.00 1.07 1.07 93 1009.3
20260507003356 5 270 3.2 6.4 0.00 1.07 1.07 93 1009.3
20260507002856 5 269 3.2 6.4 0.00 1.07 1.07 93 1009.0
20260507002354 5 268 4.8 9.7 0.00 1.07 1.07 93 1009.2
20260507002334 5 273 6.4 12.9 0.00 1.07 1.07 93 1009.2
20260507001338 5 267 6.4 12.9 0.00 1.07 1.07 93 1009.2
20260507000835 5 271 6.4 9.7 0.00 1.07 1.07 93 1009.2
20260507000331 5 276 6.4 9.7 0.00 1.07 1.07 93 1008.9
20260506235829 5 288 6.4 11.3 0.00 1.07 1.07 93 1009.0
20260506235324 5 266 8.0 12.9 0.00 1.07 1.07 93 1008.9
20260506234817 5 281 9.7 12.9 0.00 1.07 1.07 93 1009.1
20260506234317 5 265 9.7 12.9 0.00 1.07 1.07 93 1009.1
20260506233817 5 264 8.0 12.9 0.00 1.07 1.07 93 1008.7
20260506233318 5 272 6.4 12.9 0.00 1.09 1.07 93 1008.5
20260506232816 5 275 6.4 11.3 0.00 1.09 1.07 93 1008.5
20260506232315 5 263 6.4 9.7 0.00 1.09 1.07 93 1008.5
20260506232035 5 281 4.8 9.7 0.00 1.09 1.07 93 1008.4
20260506231310 5 271 4.8 9.7 0.00 1.09 1.07 93 1008.4
20260506230804 5 282 4.8 8.0 0.00 1.09 1.07 93 1008.4
20260506230303 5 286 6.4 12.9 0.00 1.09 1.07 93 1008.3
20260506225802 5 299 8.0 14.5 0.00 1.22 1.07 93 1008.2
20260506225301 6 290 8.0 14.5 0.00 1.42 1.07 93 1008.1
20260506224759 6 284 8.0 12.9 0.00 1.52 1.07 93 1008.1
20260506224259 6 279 9.7 17.7 0.00 1.55 1.07 93 1008.1
20260506223759 5 315 8.0 17.7 0.00 1.55 1.07 93 1008.0
20260506223259 6 293 6.4 16.1 0.00 1.55 1.07 93 1008.0
20260506223021 6 339 8.0 14.5 0.00 1.55 1.07 93 1008.1
20260506222300 6 317 9.7 17.7 0.00 1.55 1.07 93 1008.2
20260506221757 6 306 8.0 17.7 0.00 1.55 1.07 93 1008.2
20260506221256 6 291 8.0 14.5 0.00 1.55 1.07 93 1008.3
20260506220754 6 287 6.4 16.1 0.00 1.55 1.07 93 1008.5
20260506220253 6 319 6.4 16.1 0.00 1.55 1.07 93 1008.4
20260506215751 6 338 6.4 12.9 0.00 1.55 1.07 93 1007.9
20260506215251 6 318 6.4 14.5 0.00 1.55 1.07 93 1008.1
20260506214751 6 284 6.4 14.5 0.00 1.55 1.07 93 1008.0
20260506214253 6 276 6.4 17.7 0.00 1.55 1.07 93 1008.1
20260506213749 6 290 6.4 17.7 0.00 1.55 1.07 93 1008.1
20260506213249 6 309 6.4 14.5 0.00 1.55 1.07 94 1007.9
20260506212750 6 322 6.4 17.7 0.00 1.55 1.07 93 1007.9
20260506212731 6 327 8.0 22.5 0.00 1.55 1.07 93 1007.8
20260506211747 5 320 8.0 22.5 0.00 1.55 1.07 93 1007.7
20260506211514 6 305 8.0 17.7 0.00 1.55 1.07 93 1007.8
20260506210742 5 317 9.7 22.5 0.00 1.55 1.07 93 1007.8
20260506210242 5 329 9.7 22.5 0.00 1.55 1.07 93 1007.7
20260506205742 6 331 9.7 22.5 0.00 1.55 1.07 93 1007.5
20260506205242 6 318 11.3 20.9 0.00 1.55 1.07 93 1007.4
20260506204738 6 325 11.3 19.3 0.00 1.55 1.07 93 1007.2
20260506204238 6 330 9.7 19.3 0.00 1.55 1.07 93 1007.2
20260506203736 6 311 11.3 24.1 0.00 1.55 1.07 93 1006.9
20260506203458 6 319 11.3 24.1 0.00 1.55 1.07 93 1006.9
20260506202738 6 321 11.3 20.9 0.00 1.55 1.07 93 1006.9
20260506202236 6 0 11.3 22.5 0.00 1.55 1.07 93 1006.8
20260506201737 6 339 12.9 24.1 0.03 1.55 1.07 93 1006.8
20260506201238 6 297 16.1 30.6 0.03 1.55 1.07 93 1006.8
20260506200741 6 284 14.5 30.6 0.03 1.55 1.07 93 1006.7
20260506200237 6 299 9.7 25.7 0.03 1.55 1.07 93 1006.6
20260506195736 6 327 8.0 17.7 0.03 1.55 1.07 93 1006.4
20260506195232 6 291 9.7 19.3 0.03 1.55 1.07 93 1006.4
20260506194733 6 322 11.3 19.3 0.03 1.55 1.07 93 1006.4
20260506194234 6 333 12.9 22.5 0.03 1.55 1.07 93 1006.4
20260506193734 6 302 9.7 22.5 0.03 1.55 1.07 93 1006.4
20260506193230 7 319 6.4 14.5 0.03 1.55 1.07 93 1006.4
20260506192728 7 341 6.4 14.5 0.05 1.55 1.07 93 1006.4
20260506192226 7 333 6.4 17.7 0.05 1.55 1.07 93 1006.4
20260506191721 7 331 6.4 19.3 0.03 1.52 1.04 93 1006.6
20260506191220 7 338 8.0 22.5 0.03 1.52 1.04 93 1006.6
20260506190717 6 329 11.3 22.5 0.05 1.52 1.04 93 1006.3
20260506190216 6 292 9.7 20.9 0.05 1.52 1.04 93 1006.3
20260506185711 6 290 11.3 24.1 0.05 1.52 1.04 93 1006.1
20260506185210 6 299 11.3 24.1 0.05 1.55 1.04 93 1006.2
20260506184707 7 288 9.7 20.9 0.05 1.55 1.04 93 1006.1
20260506184207 7 325 8.0 20.9 0.05 1.57 1.04 93 1006.0
20260506184151 7 327 8.0 19.3 0.05 1.63 1.04 93 1006.1
20260506183155 7 329 8.0 19.3 0.05 1.63 1.04 93 1005.9
20260506182652 7 289 9.7 17.7 0.05 1.60 1.02 93 1005.8
20260506182420 7 339 11.3 19.3 0.05 1.60 1.02 93 1005.7
20260506181641 7 289 12.9 19.3 0.05 1.60 1.02 93 1005.8
20260506181139 7 288 11.3 19.3 0.05 1.60 1.02 93 1005.8
20260506180638 7 293 8.0 19.3 0.03 1.57 0.99 93 1005.8
20260506180406 7 329 6.4 12.9 0.03 1.57 0.99 93 1005.8
20260506175903 7 322 8.0 12.9 0.03 1.57 0.99 93 1005.6
20260506175357 7 350 6.4 12.9 0.03 1.57 0.99 93 1005.6
20260506174622 7 313 4.8 14.5 0.03 1.57 0.99 93 1005.5
20260506174120 7 321 6.4 14.5 0.03 1.57 0.99 93 1005.5
20260506173616 7 283 4.8 9.7 0.03 1.57 0.99 93 1005.5
20260506173117 7 327 4.8 12.9 0.03 1.57 0.99 93 1005.3
20260506172619 7 311 4.8 12.9 0.03 1.55 0.97 93 1005.3
20260506172113 7 291 3.2 11.3 0.03 1.55 0.97 93 1005.4
20260506171609 7 346 4.8 12.9 0.03 1.55 0.97 93 1005.3
20260506171105 7 316 4.8 12.9 0.03 1.55 0.97 93 1005.4
20260506170604 7 344 6.4 12.9 0.03 1.55 0.97 93 1005.4
20260506170106 7 333 6.4 14.5 0.03 1.55 0.97 93 1005.4
20260506165606 7 308 6.4 17.7 0.03 1.55 0.97 93 1005.4
20260506165323 7 296 4.8 17.7 0.03 1.55 0.97 93 1005.1
20260506164603 7 10 4.8 12.9 0.03 1.55 0.97 93 1005.1
20260506164059 7 315 3.2 12.9 0.03 1.55 0.97 93 1005.1
20260506163558 7 326 1.6 6.4 0.05 1.55 0.97 93 1005.2
20260506163546 7 343 3.2 9.7 0.05 1.55 0.97 93 1005.3
20260506162551 7 305 6.4 12.9 0.03 1.52 0.94 93 1005.2
20260506162053 7 345 6.4 12.9 0.03 1.52 0.94 93 1005.1
20260506161552 7 355 6.4 12.9 0.03 1.52 0.94 93 1005.1
20260506161050 6 344 6.4 12.9 0.03 1.52 0.94 93 1004.9
20260506160550 7 336 3.2 12.9 0.05 1.52 0.94 93 1004.9
20260506160051 7 342 4.8 12.9 0.05 1.52 0.94 93 1004.9
20260506155809 6 313 6.4 12.9 0.05 1.52 0.94 93 1004.8
20260506155050 6 328 6.4 12.9 0.05 1.52 0.94 93 1004.8
20260506154550 6 355 4.8 12.9 0.05 1.52 0.94 93 1005.0
20260506154049 6 351 4.8 9.7 0.05 1.52 0.94 93 1005.0
20260506153545 6 349 3.2 8.0 0.03 1.50 0.91 93 1004.9
20260506153047 6 327 3.2 8.0 0.03 1.50 0.91 93 1004.8
20260506152547 6 317 3.2 8.0 0.05 1.50 0.91 93 1004.8
20260506152045 6 340 3.2 8.0 0.05 1.50 0.91 93 1004.7
20260506151545 6 5 4.8 8.0 0.05 1.50 0.91 93 1004.7
20260506151305 6 355 4.8 9.7 0.05 1.50 0.91 93 1004.8
20260506150542 6 306 3.2 9.7 0.05 1.47 0.91 93 1004.9
20260506150040 6 344 4.8 9.7 0.05 1.47 0.89 93 1004.8
20260506145758 6 0 4.8 9.7 0.05 1.47 0.89 93 1004.6
20260506145039 6 340 4.8 8.0 0.08 1.47 0.89 93 1004.5
20260506144538 6 0 6.4 12.9 0.08 1.47 0.89 93 1004.6
20260506144031 6 355 6.4 12.9 0.10 1.47 0.89 93 1004.7
20260506143757 6 355 4.8 12.9 0.10 1.47 0.89 92 1004.5
20260506143030 6 355 4.8 12.9 0.10 1.47 0.89 92 1004.3
20260506142530 7 34 4.8 11.3 0.08 1.45 0.89 93 1004.2
20260506142020 7 35 6.4 14.5 0.10 1.45 0.86 93 1004.3
20260506141518 6 32 6.4 14.5 0.13 1.45 0.86 93 1004.2
20260506141020 6 349 4.8 12.9 0.13 1.45 0.86 93 1004.4
20260506140519 6 5 4.8 12.9 0.10 1.42 0.84 92 1004.4
20260506140015 6 355 8.0 12.9 0.13 1.42 0.84 92 1004.3
20260506135516 6 0 6.4 12.9 0.15 1.42 0.84 92 1004.4
20260506135014 6 341 6.4 12.9 0.15 1.40 0.81 92 1004.3
20260506134515 7 27 8.0 12.9 0.18 1.40 0.81 92 1004.5
20260506134012 7 355 6.4 9.7 0.20 1.37 0.79 92 1004.6
20260506133510 7 345 4.8 8.0 0.23 1.37 0.79 92 1004.5
20260506133011 7 355 3.2 6.4 0.25 1.37 0.79 92 1004.6
20260506132459 7 323 0.0 4.8 0.25 1.37 0.79 92 1004.7
20260506131959 8 304 0.0 0.0 0.23 1.35 0.76 92 1004.7
20260506131717 8 303 0.0 3.2 0.23 1.32 0.74 92 1004.8
20260506130950 8 304 1.6 3.2 0.25 1.32 0.74 92 1004.8
20260506130450 8 307 1.6 4.8 0.28 1.32 0.74 92 1004.9
20260506125951 8 310 1.6 4.8 0.25 1.27 0.71 92 1004.9
20260506125453 8 9 1.6 3.2 0.25 1.27 0.69 92 1004.9
20260506124948 8 9 3.2 6.4 0.23 1.24 0.66 92 1004.8
20260506124712 8 9 6.4 19.3 0.20 1.22 0.64 92 1004.8
20260506123949 8 283 8.0 19.3 0.18 1.17 0.61 92 1004.8
20260506123449 8 65 4.8 12.9 0.18 1.14 0.56 92 1004.3
20260506122948 8 63 4.8 14.5 0.15 1.12 0.53 92 1004.5
20260506122713 8 49 4.8 14.5 0.18 1.12 0.53 92 1004.5
20260506121948 8 61 4.8 9.7 0.20 1.12 0.53 92 1004.4
20260506121450 8 15 4.8 12.9 0.18 1.09 0.51 92 1004.5
20260506121208 8 11 4.8 14.5 0.18 1.07 0.48 92 1004.4
20260506120446 8 327 4.8 14.5 0.18 1.04 0.46 92 1004.3
20260506115950 8 344 4.8 11.3 0.15 1.02 0.43 92 1004.5
20260506115444 8 328 8.0 20.9 0.18 1.02 0.43 92 1004.5
20260506114944 8 270 8.0 20.9 0.18 1.02 0.43 91 1004.5
20260506114652 9 261 1.6 12.9 0.18 0.99 0.41 92 1004.5
20260506114541 8 144 3.2 12.9 0.20 1.02 0.43 92 1004.4
20260506113445 9 112 0.0 4.8 0.15 0.97 0.41 92 1004.5
20260506112948 8 113 0.0 4.8 0.15 0.97 0.38 92 1004.4
20260506112443 8 42 0.0 0.0 0.15 0.94 0.36 92 1004.4
20260506111940 8 43 0.0 0.0 0.13 0.91 0.33 92 1004.6
20260506111442 8 42 0.0 1.6 0.13 0.91 0.33 92 1004.7
20260506110937 8 42 0.0 4.8 0.13 0.89 0.30 92 1004.7
20260506110436 8 42 1.6 6.4 0.10 0.86 0.28 92 1004.8
20260506105930 8 63 1.6 6.4 0.13 0.86 0.28 92 1004.7
20260506105430 8 65 3.2 12.9 0.13 0.84 0.25 92 1004.8
20260506104930 8 65 4.8 14.5 0.13 0.84 0.25 91 1004.7
20260506104431 8 80 4.8 14.5 0.10 0.81 0.23 92 1004.7
20260506103925 8 26 4.8 9.7 0.10 0.81 0.23 91 1004.6
20260506103426 8 247 4.8 14.5 0.13 0.81 0.23 91 1004.8
20260506102924 8 48 6.4 14.5 0.13 0.81 0.23 91 1004.5
20260506102424 8 15 6.4 14.5 0.10 0.79 0.23 91 1004.7
20260506101919 8 69 4.8 14.5 0.13 0.79 0.20 91 1004.8
20260506101418 8 69 4.8 14.5 0.13 0.79 0.20 91 1004.7
20260506100919 8 61 4.8 12.9 0.10 0.76 0.18 91 1004.8
20260506100422 8 67 6.4 11.3 0.13 0.76 0.18 91 1004.8
20260506095915 8 85 6.4 14.5 0.10 0.74 0.15 91 1004.8
20260506095414 8 82 8.0 16.1 0.10 0.71 0.13 91 1005.0
20260506094912 8 67 8.0 16.1 0.10 0.71 0.13 91 1004.7
20260506094411 8 61 6.4 14.5 0.10 0.71 0.13 91 1004.8
20260506093910 8 44 4.8 14.5 0.10 0.71 0.13 91 1004.8
20260506093625 8 53 4.8 11.3 0.10 0.69 0.10 91 1004.9
20260506093138 8 21 6.4 12.9 0.10 0.69 0.10 91 1005.1
20260506092401 8 346 8.0 16.1 0.10 0.69 0.10 91 1005.2
20260506092119 8 299 8.0 16.1 0.08 0.66 0.08 91 1005.5
20260506091357 8 0 4.8 16.1 0.08 0.66 0.08 91 1005.4
20260506090857 8 348 3.2 8.0 0.08 0.66 0.08 90 1005.3
20260506090352 8 336 3.2 8.0 0.05 0.64 0.05 90 1005.2
20260506085853 8 5 1.6 4.8 0.05 0.64 0.05 90 1005.1
20260506085354 8 5 1.6 4.8 0.03 0.61 0.03 90 1005.2
20260506084853 8 24 1.6 6.4 0.03 0.61 0.03 90 1005.0
20260506084353 8 22 3.2 8.0 0.03 0.61 0.03 90 1005.1
20260506084324 8 5 4.8 11.3 0.03 0.61 0.03 90 1005.2
20260506083345 8 13 6.4 12.9 0.00 0.58 0.00 90 1004.9
20260506082845 8 274 8.0 17.7 0.00 0.58 0.00 90 1005.0
20260506082345 8 26 9.7 17.7 0.00 0.58 0.00 89 1005.1
20260506081844 8 103 6.4 16.1 0.00 0.58 0.00 90 1004.7
20260506081345 8 290 3.2 11.3 0.00 0.58 0.00 90 1004.9
20260506080844 8 174 1.6 6.4 0.00 0.58 0.00 90 1004.9
20260506080344 8 79 1.6 6.4 0.00 0.58 0.00 90 1004.8
20260506073329 8 65 1.6 6.4 0.00 0.58 0.00 90 1005.1
20260506072808 8 74 1.6 6.4 0.00 0.58 0.00 90 1005.0
20260506072259 8 88 1.6 4.8 0.00 0.58 0.00 90 1005.0
20260506071755 8 90 1.6 6.4 0.00 0.58 0.00 90 1005.0
20260506071253 8 88 3.2 11.3 0.00 0.58 0.00 90 1005.0
20260506070752 8 82 3.2 11.3 0.00 0.58 0.00 90 1005.0
20260506070253 8 108 3.2 6.4 0.00 0.58 0.00 91 1005.1
20260506061735 7 22 4.8 8.0 0.00 0.58 0.00 90 1006.0
20260506061237 7 27 4.8 9.7 0.00 0.58 0.00 90 1006.1
20260506060732 7 0 4.8 9.7 0.00 0.58 0.00 90 1006.1
20260506060230 7 5 3.2 6.4 0.00 0.58 0.00 90 1006.2
20260506051214 7 349 3.2 6.4 0.00 0.58 0.00 89 1006.7
20260506050711 8 39 1.6 6.4 0.00 0.58 0.00 89 1006.8
20260506050209 8 86 3.2 9.7 0.00 0.58 0.00 89 1006.8
20260506044654 8 305 0.0 3.2 0.00 0.58 0.00 88 1006.8
20260506044153 8 305 1.6 6.4 0.00 0.58 0.00 88 1007.0
20260506043909 8 305 1.6 6.4 0.00 0.58 0.00 88 1007.0
20260506043143 8 64 3.2 11.3 0.00 0.58 0.00 87 1007.0
20260506042639 8 65 4.8 11.3 0.00 0.58 0.00 88 1006.8
20260506042135 8 63 4.8 11.3 0.00 0.58 0.00 87 1006.7
20260506041629 8 64 3.2 11.3 0.00 0.58 0.00 87 1006.8
20260506041124 8 74 3.2 11.3 0.00 0.58 0.00 87 1006.6
20260506040609 8 63 1.6 4.8 0.00 0.58 0.00 87 1006.6
20260506035556 8 59 4.8 12.9 0.00 0.58 0.58 86 1006.9
20260506035052 8 70 6.4 9.7 0.00 0.58 0.58 86 1006.9
20260506034553 9 78 4.8 9.7 0.00 0.58 0.58 86 1007.0
20260506034051 9 29 3.2 9.7 0.00 0.58 0.58 86 1007.0
20260506033551 9 37 3.2 8.0 0.00 0.58 0.58 86 1007.3
20260506033050 9 15 3.2 8.0 0.00 0.58 0.58 86 1007.2
20260506032550 9 57 4.8 12.9 0.00 0.58 0.58 86 1007.5
20260506032053 9 68 6.4 12.9 0.00 0.58 0.58 86 1007.2
20260506031548 9 69 4.8 12.9 0.00 0.58 0.58 85 1007.2